Location: PSU-Greenbush Astrophysical Observatory
(37.5140°N, 94.9880°W)
Time: 10:32:02
(UTC-05:00)

BEESAT - Pass Details

Date: 27 February 2020
Orbit: 700 x 709 km, 98.6° (Epoch: 04 April)

Event Time Altitude Azimuth Distance (km) Brightness Sun altitude
Rises 18:38:15 0° 5° (N) 3,093 ? -6.1°
Reaches altitude 10° 18:40:35 10° 359° (N) 2,170 ? -6.6°
Maximum altitude 18:45:05 44° 288° (WNW) 970 ? -7.5°
Drops below altitude 10° 18:49:33 10° 217° (SW) 2,157 ? -8.3°
Sets 18:51:52 0° 211° (SSW) 3,072 ? -8.8°
